Total_Precipitation_Accumulation
0.27 0.64 1.29 2.03 3.21 3.38 2.23 1.25 0.99 0.89 0.80 0.74 0.65 0.69 0.97 1.44 2.12 3.21 3.15 2.65 2.51 2.78 3.14 3.68 3.77 3.44 3.29 3.06 3.12 3.25 3.15 3.22 2.99 2.81 2.62 2.53 2.33 2.00 1.78 1.69 1.65 1.65 1.61 1.45 1.54 1.61 1.53 1.66 1.86
0.55 1.02 1.57 2.49 3.26 2.56 1.73 1.09 0.92 0.73 0.63 0.64 0.72 0.84 0.90 1.18 1.25 1.95 2.75 2.68 2.25 2.31 2.79 2.99 3.28 3.14 2.91 2.71 2.83 2.88 2.94 2.90 2.79 2.55 2.37 2.30 2.23 1.98 1.69 1.62 1.60 1.55 1.48 1.44 1.54 1.60 1.63 1.66 1.73
0.94 1.24 1.88 2.76 2.36 1.52 1.15 0.85 0.72 0.69 0.63 0.71 0.82 0.90 1.06 1.43 1.52 2.12 2.62 2.26 2.09 2.14 2.50 2.86 2.89 2.70 2.50 2.39 2.51 2.61 2.63 2.58 2.62 2.45 2.31 2.19 2.06 1.86 1.64 1.53 1.55 1.51 1.49 1.44 1.52 1.70 1.81 1.79 1.74
1.15 1.58 1.87 2.13 1.58 0.79 0.52 0.53 0.54 0.75 0.88 0.99 1.04 1.19 1.35 1.44 1.53 1.92 2.08 1.81 1.75 1.76 1.95 2.37 2.51 2.40 2.40 2.32 2.25 2.35 2.35 2.42 2.51 2.38 2.25 2.31 2.19 1.97 1.69 1.51 1.48 1.49 1.50 1.51 1.61 1.76 1.88 1.79 1.66
1.17 1.81 2.16 1.61 1.00 0.59 0.42 0.40 0.55 0.81 1.01 1.09 1.19 1.60 2.07 1.88 1.47 1.61 1.66 1.61 1.50 1.58 1.71 2.04 2.34 2.34 2.29 2.11 1.98 2.16 2.29 2.28 2.28 2.21 2.06 2.16 2.09 1.94 1.72 1.51 1.45 1.40 1.43 1.52 1.64 1.73 1.80 1.69 1.66
1.50 1.91 1.78 1.21 0.71 0.45 0.44 0.43 0.52 0.74 0.95 1.09 1.42 1.83 2.46 2.35 1.92 1.80 1.64 1.70 1.58 1.44 1.59 1.94 2.25 2.18 2.06 1.96 2.00 2.21 2.30 2.17 2.09 2.08 1.99 1.98 2.01 1.96 1.85 1.66 1.59 1.47 1.47 1.60 1.67 1.71 1.66 1.63 1.70
1.62 1.65 1.22 0.87 0.63 0.46 0.42 0.41 0.50 0.73 0.95 1.20 1.47 1.78 2.18 2.42 2.24 1.96 1.75 1.82 1.96 1.74 1.78 1.85 1.89 1.96 2.02 2.20 2.36 2.53 2.45 2.14 2.03 2.03 1.94 1.84 1.83 1.86 1.80 1.79 1.75 1.68 1.66 1.73 1.84 1.77 1.71 1.69 1.79
1.04 1.15 0.84 0.60 0.66 0.56 0.37 0.36 0.49 0.74 0.97 1.19 1.41 1.65 2.12 2.06 2.01 2.07 2.30 2.51 2.62 2.46 2.28 2.04 1.94 2.12 2.10 2.21 2.48 2.60 2.34 2.05 1.96 2.03 2.01 1.98 2.10 2.17 2.13 1.97 1.97 2.07 2.13 2.12 2.16 2.05 1.97 1.90 2.02
0.67 1.00 0.82 0.51 0.50 0.48 0.34 0.38 0.49 0.55 0.76 1.08 1.26 1.37 1.46 1.56 1.91 2.32 2.79 2.99 2.86 2.92 2.75 2.52 2.28 2.10 2.22 2.30 2.43 2.79 2.58 2.31 2.35 2.58 2.61 2.75 3.18 2.96 2.93 2.41 2.52 2.72 2.83 2.83 2.80 2.72 2.56 2.28 2.15
0.61 0.80 0.50 0.29 0.22 0.24 0.26 0.35 0.47 0.64 1.12 1.77 1.68 1.34 1.24 1.57 1.99 2.28 2.70 3.10 2.78 2.93 2.67 2.54 2.45 2.10 2.08 2.22 2.75 3.40 3.06 2.89 2.93 3.25 3.18 3.56 3.61 3.46 2.72 2.82 3.33 3.53 3.82 3.87 3.77 3.67 3.19 2.66 2.36
0.41 0.46 0.28 0.16 0.13 0.11 0.16 0.27 0.37 0.69 1.26 1.95 2.10 1.65 1.53 1.73 2.13 2.22 2.57 2.94 2.85 2.71 2.62 2.37 2.68 2.40 2.46 2.84 2.98 3.30 3.46 3.40 3.38 3.42 3.39 3.66 3.30 3.04 3.01 3.50 3.87 4.13 4.27 4.33 4.21 4.03 3.35 3.32 3.49
0.25 0.21 0.15 0.11 0.10 0.10 0.20 0.31 0.45 0.62 1.14 1.42 1.38 1.27 1.43 1.74 2.10 2.35 2.56 3.02 2.89 2.57 2.58 2.66 2.80 2.89 3.08 3.12 3.04 2.94 2.81 2.84 3.02 3.20 3.17 3.36 3.49 3.54 3.52 3.79 3.94 4.13 4.51 4.92 4.67 4.61 4.19 4.06 3.82
0.16 0.18 0.16 0.15 0.13 0.15 0.19 0.30 0.47 0.66 0.92 0.93 0.87 1.05 1.47 1.81 2.30 2.73 3.26 3.63 3.52 3.25 3.08 3.17 3.41 3.45 3.40 3.45 3.21 2.73 2.57 2.48 2.53 2.73 2.88 2.85 3.21 3.51 3.53 3.48 3.64 3.55 3.72 4.15 4.73 4.58 4.72 4.59 4.14
0.13 0.14 0.16 0.18 0.15 0.20 0.22 0.27 0.48 0.80 0.90 0.88 1.01 1.26 1.64 2.09 2.56 2.93 3.81 4.33 4.42 4.24 4.04 3.88 4.00 3.69 3.52 3.46 3.22 2.98 2.59 2.61 2.53 2.49 2.48 2.69 2.95 3.25 3.24 3.26 3.57 3.55 3.44 3.60 4.07 4.22 4.66 4.61 4.20
0.17 0.22 0.25 0.24 0.19 0.20 0.25 0.53 0.72 0.83 1.06 1.05 1.22 1.42 1.74 2.31 2.83 3.42 4.07 4.89 5.19 5.36 4.99 4.44 4.20 3.93 3.78 3.61 3.24 2.86 2.67 2.51 2.68 2.67 2.53 2.60 2.72 2.98 2.98 3.10 3.13 3.16 3.07 3.22 3.43 3.65 3.94 3.85 3.66
0.25 0.42 0.55 0.34 0.22 0.21 0.34 0.88 0.97 0.79 1.12 1.47 1.41 1.67 2.08 2.60 3.11 3.88 4.61 5.46 5.95 6.12 5.59 4.86 4.11 4.22 4.18 4.00 3.40 2.92 2.75 2.69 2.67 2.54 2.39 2.33 2.49 2.50 2.67 2.68 2.63 2.67 2.54 2.70 3.14 3.18 3.40 3.60 3.58
0.30 0.42 0.48 0.40 0.24 0.27 0.39 0.86 1.02 0.81 1.04 1.35 1.56 1.82 2.24 2.65 3.02 3.66 4.29 5.11 5.75 6.25 6.10 5.46 5.31 5.12 4.52 3.88 3.34 2.98 2.77 2.74 2.50 2.44 2.41 2.41 2.39 2.46 2.63 2.76 2.75 2.36 2.37 2.52 2.33 2.82 3.09 3.28 3.29
0.34 0.29 0.37 0.46 0.33 0.34 0.47 0.72 1.00 1.02 1.25 1.59 1.71 1.82 2.07 2.33 2.66 3.12 3.69 4.15 4.75 5.25 5.18 5.10 5.22 4.82 4.24 3.65 3.25 3.06 2.84 2.59 2.41 2.39 2.51 2.51 2.45 2.40 2.74 2.58 2.39 2.16 2.53 2.83 2.89 3.25 3.18 3.00 3.01
0.22 0.24 0.32 0.39 0.33 0.42 0.59 0.76 1.03 1.20 1.47 1.74 1.72 1.68 1.73 2.01 2.33 2.52 2.91 3.32 3.60 3.77 3.88 4.22 4.38 4.16 3.72 3.35 2.91 2.82 2.80 2.56 2.36 2.28 2.16 2.33 2.25 2.45 2.86 2.59 2.91 2.58 2.65 2.81 2.83 3.06 3.02 2.71 2.67
0.18 0.21 0.32 0.39 0.33 0.40 0.59 0.95 1.16 1.24 1.33 1.47 1.53 1.46 1.58 1.91 2.00 2.05 2.19 2.53 2.76 2.99 3.27 3.62 3.87 3.73 3.15 2.95 2.80 2.74 2.73 2.54 2.58 2.49 2.47 2.23 2.20 2.42 2.49 2.89 2.66 2.72 2.90 2.88 2.94 3.11 3.11 2.82 2.80
0.17 0.18 0.24 0.33 0.38 0.51 0.66 1.33 1.43 1.23 1.19 1.11 1.25 1.32 1.33 1.56 1.79 1.88 1.85 1.94 2.21 2.79 3.01 2.91 3.18 3.37 3.12 3.04 2.98 2.91 2.90 2.71 2.81 2.80 2.71 2.34 2.16 2.14 2.33 2.51 2.53 2.79 2.59 2.94 3.16 3.13 3.25 3.29 3.10
0.18 0.15 0.16 0.21 0.31 0.63 0.74 1.46 1.58 1.35 1.37 1.12 1.06 1.13 1.13 1.15 1.43 1.62 1.52 1.56 1.78 2.07 2.37 2.73 3.06 3.14 3.07 2.98 2.80 2.71 2.53 2.49 2.52 2.54 2.56 2.40 2.25 2.14 2.21 2.32 2.64 2.85 2.59 3.15 2.73 2.85 3.13 3.33 3.15
0.11 0.11 0.13 0.21 0.34 0.59 0.74 1.19 1.48 1.35 1.60 1.24 0.88 0.80 0.83 0.84 0.93 1.09 1.22 1.36 1.41 1.55 1.96 2.52 2.99 3.21 3.11 2.79 2.67 2.81 2.65 2.56 2.56 2.47 2.65 2.48 2.32 2.14 2.03 2.30 2.59 2.73 2.63 2.81 2.87 3.16 3.01 2.98 2.99
0.07 0.11 0.23 0.39 0.57 1.00 0.96 1.04 1.42 1.22 1.06 0.84 0.68 0.62 0.66 0.74 0.73 0.79 0.92 1.18 1.38 1.43 1.65 2.11 2.55 2.84 2.90 2.71 2.61 2.69 2.79 2.78 2.66 2.52 2.49 2.30 2.26 2.19 2.10 2.31 2.61 2.57 2.64 2.83 2.79 2.96 2.95 3.02 3.10
0.06 0.12 0.44 0.74 0.98 1.12 0.75 0.96 1.34 0.92 0.74 0.68 0.65 0.65 0.60 0.57 0.69 0.83 0.96 1.10 1.20 1.32 1.50 1.75 1.96 2.17 2.38 2.55 2.62 2.55 2.72 2.81 2.58 2.35 2.39 2.35 2.18 2.17 2.25 2.41 2.70 2.60 2.67 2.76 3.02 3.11 3.04 3.02 3.03
0.07 0.10 0.28 0.48 0.59 0.71 0.74 1.41 1.32 0.75 0.62 0.58 0.58 0.58 0.59 0.70 0.76 0.86 1.08 1.18 1.16 1.21 1.45 1.55 1.69 1.95 2.24 2.43 2.50 2.44 2.39 2.29 2.23 2.38 2.28 2.28 2.26 2.18 2.12 2.30 2.36 2.35 2.43 2.50 3.04 2.87 2.84 2.96 2.88
0.08 0.10 0.15 0.23 0.30 0.56 0.91 1.09 0.85 0.56 0.55 0.57 0.55 0.58 0.63 0.74 0.88 0.96 1.13 1.18 1.10 1.14 1.33 1.46 1.63 1.81 1.98 2.28 2.47 2.37 2.31 2.14 2.09 2.14 2.13 2.08 2.22 2.17 2.14 2.14 2.23 2.30 2.46 2.63 2.83 2.72 2.81 3.03 2.88
0.09 0.10 0.15 0.18 0.26 0.45 0.78 1.03 1.08 0.82 0.69 0.59 0.60 0.66 0.70 0.81 0.99 1.11 1.12 1.14 1.10 1.16 1.38 1.45 1.58 1.66 1.71 1.87 1.97 1.88 2.07 2.07 2.18 2.17 2.06 1.97 1.97 2.00 2.07 2.17 2.19 2.28 2.40 2.66 2.85 2.81 2.91 3.00 2.86
0.11 0.09 0.10 0.13 0.16 0.29 0.63 0.85 0.81 0.77 0.75 0.62 0.61 0.69 0.81 0.83 0.97 1.08 1.03 1.02 0.99 1.05 1.20 1.23 1.38 1.55 1.62 1.76 1.82 1.90 2.00 2.03 2.07 2.10 2.08 2.07 2.08 2.10 2.09 2.18 2.24 2.26 2.27 2.48 2.69 2.58 2.83 2.98 3.02
0.13 0.15 0.14 0.14 0.13 0.20 0.34 0.51 0.50 0.58 0.68 0.66 0.70 0.82 0.92 0.78 0.82 1.03 1.09 1.09 0.88 0.93 1.02 1.14 1.36 1.55 1.64 1.82 1.95 1.98 2.09 2.12 2.05 2.09 2.28 2.29 2.25 2.23 2.23 2.31 2.40 2.33 2.33 2.51 2.52 2.36 2.47 2.69 2.92